Starlink 1730

operational
NORAD ID: 46563 Int'l Des: 2020-070 Owner: SPXS Country: US Constellation: starlink
LEOCIRCULAR

About Starlink 1730

Description loading...

Live Position

Loading 3D Globe...

Upcoming Passes

Altitude History

Altitude vs Time

uPlot chart will show altitude changes over time

Two-Line Element Set

1 46563U 20070AH 25304.54959104 .00043232 00000-0 18097-2 0 9995
2 46563 53.0418 6.3753 0002162 272.7196 87.3552 15.23159159280467
Epoch: Oct 31, 2025 • Age: 11 hours

Current Status

Altitude 506.6 km
Velocity 7.61 km/s
Sub-Earth Point -36.04°S, 69.33°W
Launch Date Oct 6, 2020
Age 5 years
Type internet

Technical Details

Classification Payload
Mass 260.00 kg
Dry Mass 248.00 kg
Total Mass 260.00 kg
Length 0.20 m
Diameter 2.80 m
Span 9.00 m
Shape Box + pan
Manufacturer SPXS
Bus Type Starlink
Phase Status In Orbit
Owner/State SPXS/US

Large Constellations

Loading constellations...